Theta_e
310 310 309 310 310 309 308 310 310 316 317 318 316 314 311 309 311 311 311 312 315 315 315 314 314 315 315 316 316 315 320 318 318 317 315 312 313 313 314 313 312 312 312 313 314
309 309 309 310 310 310 309 309 312 315 318 318 316 311 310 312 310 312 315 316 316 314 314 313 314 314 316 317 318 319 319 319 315 315 315 315 314 314 314 314 315 314 314 315 316
309 309 310 309 308 310 310 308 314 316 318 318 315 309 311 311 311 312 317 318 313 312 312 312 312 314 315 316 317 318 318 317 316 315 315 315 315 315 315 315 315 315 314 316 317
309 309 309 309 308 311 311 311 316 317 317 315 312 307 307 310 314 314 318 317 313 312 313 314 314 317 317 317 316 316 316 315 316 315 316 316 315 315 315 314 314 314 315 316 316
309 309 310 310 310 311 310 314 316 316 315 313 307 309 312 313 313 314 318 316 315 315 315 315 316 316 317 316 316 317 317 316 316 316 316 316 316 316 315 314 314 315 316 315 316
310 310 312 313 310 310 312 314 315 315 312 305 306 310 314 317 314 317 318 316 315 315 314 315 315 314 315 315 315 316 316 316 316 316 316 317 316 316 316 316 316 316 315 315 315
312 312 313 312 313 313 314 315 316 312 306 310 312 312 313 314 315 315 315 315 315 315 314 314 314 315 314 315 315 315 317 316 315 316 316 316 317 317 315 316 315 315 314 315 316
312 312 312 313 313 312 314 314 309 307 308 309 310 311 313 312 313 313 313 313 314 314 314 314 314 315 315 314 315 315 315 317 317 316 316 316 317 317 315 315 314 314 314 315 315
309 310 312 312 313 311 308 306 306 306 308 310 311 311 312 311 312 311 310 311 311 312 313 313 314 315 315 316 314 316 316 319 318 315 316 316 316 314 315 314 311 313 313 314 315
308 309 309 309 309 308 309 310 310 309 309 309 310 311 310 310 309 309 310 310 311 313 315 316 316 315 315 316 316 316 318 317 314 315 316 316 315 313 311 313 311 313 313 313 314
308 307 307 306 306 306 310 312 311 311 309 310 310 310 310 309 309 310 309 310 311 313 313 313 314 313 311 310 310 310 310 312 312 312 314 312 311 311 310 309 314 313 312 312 311
305 305 305 308 308 309 309 309 309 309 310 309 310 309 309 310 312 311 310 311 311 312 311 312 314 312 310 310 310 311 311 311 310 310 309 309 309 309 310 314 315 314 312 312 312
304 305 305 307 310 310 308 308 308 309 315 309 309 308 309 310 310 311 311 311 311 311 311 312 311 309 309 310 310 309 311 312 310 308 307 307 308 308 309 314 314 312 311 312 311
304 305 304 304 309 310 309 309 309 309 322 310 308 310 310 310 312 309 310 311 311 311 310 310 310 309 310 310 309 309 310 311 311 309 309 310 313 311 314 315 313 312 311 312 310
305 304 305 308 310 311 309 308 308 308 324 310 309 308 310 310 310 311 310 309 311 309 309 312 309 310 311 310 308 310 310 311 311 310 308 310 312 317 315 316 314 313 312 310 310
306 306 305 311 310 308 306 308 309 321 317 311 309 310 311 311 310 310 310 308 308 309 309 309 308 308 309 308 309 310 311 312 310 311 314 313 313 318 315 315 313 312 312 311 310
303 305 306 307 311 308 307 311 319 322 311 310 310 311 311 310 309 309 309 308 307 308 313 311 310 308 307 309 311 312 313 316 317 318 322 314 313 314 313 313 312 312 312 311 310
304 305 307 308 306 307 311 314 317 309 312 311 311 311 311 309 310 307 306 307 305 305 308 311 311 308 307 308 309 310 313 316 319 320 318 313 313 315 312 312 312 312 311 311 311
305 309 308 310 305 308 314 318 319 312 311 311 312 311 310 309 307 307 305 305 304 303 307 308 310 306 306 306 307 313 315 312 313 312 312 314 313 313 311 312 311 311 312 312 310
306 310 311 306 305 310 315 318 313 311 310 310 311 308 308 307 306 306 305 304 304 303 304 308 306 308 307 306 307 308 309 314 315 315 317 314 312 313 312 313 312 311 310 310 309
308 312 310 304 305 313 316 316 312 310 309 310 310 308 307 306 306 306 305 304 303 303 304 305 306 309 306 308 308 308 311 311 311 313 312 312 313 313 312 312 312 311 310 310 309
308 316 307 304 316 314 320 312 306 309 308 308 308 308 308 306 306 305 305 304 302 303 305 305 304 304 308 306 304 305 306 309 310 315 310 307 308 311 312 311 311 310 309 309 310
310 312 307 308 318 318 311 310 309 308 308 308 308 308 306 306 305 305 305 305 303 303 304 305 305 302 308 305 304 304 305 305 306 304 309 309 311 311 310 310 310 310 308 308 310
308 315 315 310 308 310 310 310 309 308 307 307 306 303 304 304 305 305 304 304 303 303 304 304 305 304 306 306 304 305 305 304 305 304 307 311 310 310 309 310 309 309 308 308 309
308 313 307 313 313 309 307 307 308 308 306 306 306 306 305 303 304 304 303 302 303 303 302 302 299 304 303 304 303 302 303 304 302 303 302 308 305 304 303 302 304 308 309 308 308
307 310 307 309 308 308 307 307 307 307 306 306 305 306 305 303 303 303 302 302 302 300 301 301 299 298 295 302 303 303 302 303 304 304 304 304 305 304 303 306 306 307 307 308 308
305 304 305 309 310 309 310 310 309 305 305 305 304 304 304 304 302 300 299 300 302 303 302 301 301 300 305 304 301 300 301 303 303 305 305 305 304 306 306 306 306 306 307 308 307
Wind_Speed
11 10 11 7 8 7 11 9 13 14 17 18 15 13 11 12 11 6 11 4 4 5 6 3 4 4 1 2 3 2 2 3 3 3 5 6 1 2 2 5 7 7 8 12 20
14 12 12 11 14 11 12 11 17 15 17 18 15 13 14 10 20 17 6 7 7 6 3 2 4 0 2 2 0 3 2 6 6 7 5 6 2 5 4 8 9 8 11 12 11
20 17 15 14 12 12 10 16 19 20 19 16 13 12 13 7 9 7 7 7 6 6 3 2 1 3 1 2 2 2 2 5 3 4 5 6 8 7 8 10 10 7 10 10 14
19 18 17 13 12 12 13 14 16 22 20 14 12 11 7 2 6 2 4 5 3 3 2 1 3 2 3 4 2 4 4 2 4 3 4 7 7 10 11 11 10 10 8 6 9
23 20 17 13 9 9 14 16 24 16 16 13 12 9 3 9 7 3 2 6 2 4 6 4 5 3 4 1 2 7 5 3 6 7 7 10 11 12 11 11 10 9 7 8 10
22 21 20 18 17 18 19 23 21 18 14 15 9 6 5 15 3 4 6 2 3 3 3 3 5 5 7 3 3 5 7 10 9 10 11 12 11 9 6 7 6 7 11 10 8
25 30 32 30 31 27 26 20 15 14 15 14 14 16 16 7 4 6 2 3 2 2 1 1 5 6 5 5 4 7 10 10 12 6 2 5 8 13 12 13 5 7 7 8 7
26 25 24 29 30 23 17 14 15 16 15 11 7 7 5 2 4 4 3 3 2 1 2 3 6 7 8 6 8 7 8 4 7 3 3 4 8 4 9 9 8 6 7 6 7
27 24 23 20 19 19 18 16 13 11 8 5 3 5 5 0 1 3 4 2 3 5 6 5 4 6 5 7 6 8 4 5 5 4 6 8 8 8 6 9 9 7 7 7 8
23 22 19 16 15 13 9 8 13 9 2 2 6 5 2 3 2 4 4 4 4 6 10 4 6 4 6 3 3 4 3 7 7 3 6 11 12 11 14 10 7 6 6 8 10
20 18 16 17 15 13 11 4 2 4 15 7 7 10 4 1 3 3 2 6 7 7 5 0 3 6 7 5 8 9 10 8 8 13 9 7 13 12 11 11 4 6 8 8 11
12 13 13 20 23 15 21 6 4 3 4 7 6 6 2 3 3 3 3 3 7 7 7 2 7 8 8 8 9 9 10 11 11 10 6 9 13 15 12 3 2 5 5 7 13
10 8 6 11 11 14 18 7 5 5 4 2 2 3 2 7 3 3 4 7 8 6 6 5 10 6 8 8 11 10 7 10 8 9 9 12 16 22 14 5 3 6 6 7 11
10 11 4 5 2 4 4 3 5 2 2 7 4 2 1 4 2 2 2 2 4 3 6 6 4 5 8 9 8 8 5 7 11 7 4 6 4 3 8 6 5 6 7 10 13
10 8 8 6 6 3 3 7 6 1 2 4 2 1 3 4 6 3 2 3 7 10 3 6 4 8 8 5 6 5 3 3 8 7 9 10 2 5 5 2 5 5 8 10 11
12 9 5 4 4 2 8 8 2 1 1 2 2 3 6 5 1 3 3 5 4 5 6 12 7 2 6 8 6 8 4 5 6 5 3 8 5 4 2 2 3 5 7 9 12
14 10 6 4 3 9 8 4 2 3 3 3 2 4 6 4 3 2 5 2 3 5 3 5 8 4 1 8 5 8 1 2 3 3 4 6 5 7 7 3 1 4 5 7 8
14 8 8 6 10 4 2 1 3 2 2 1 3 6 4 4 2 3 5 2 5 6 4 3 4 6 3 1 4 6 2 2 4 2 1 5 5 4 8 6 3 1 3 5 7
9 4 3 6 5 1 2 3 1 1 2 4 7 4 4 4 3 4 5 2 2 5 3 4 3 3 3 1 1 2 1 3 3 5 2 4 3 4 6 5 4 4 4 6 7
9 4 3 8 1 0 2 3 1 2 2 2 3 1 4 4 1 2 0 3 2 0 4 2 5 0 3 2 6 4 4 2 2 2 4 4 4 4 7 5 2 3 5 6 7
4 3 2 2 1 3 1 2 1 3 0 2 5 5 5 4 2 3 1 4 2 1 2 5 3 3 1 6 1 4 2 4 1 2 2 3 5 3 6 4 3 2 3 5 6
5 3 2 4 1 2 1 3 3 2 3 3 2 5 6 4 4 4 2 3 5 0 3 4 4 4 4 4 3 3 2 1 1 2 4 3 6 3 5 5 3 5 4 3 3
3 3 1 2 1 2 3 3 2 4 4 2 4 4 3 3 4 5 2 6 6 2 1 3 3 4 1 2 1 4 5 4 4 0 5 1 5 5 6 5 6 4 5 4 3
2 3 1 2 1 3 3 5 3 3 3 2 4 0 4 5 7 4 3 3 5 2 4 1 3 6 5 4 3 5 5 7 6 3 3 8 8 4 6 8 7 6 5 4 2
2 1 1 3 0 4 1 4 4 3 4 4 3 8 4 4 5 5 4 2 6 6 4 2 4 5 11 16 11 9 8 9 11 11 4 4 7 10 9 8 7 6 2 5 5
1 2 1 4 3 4 4 3 3 3 3 4 5 4 6 4 4 5 6 2 3 5 3 4 4 4 6 8 7 10 11 14 14 13 16 18 24 20 17 1 1 5 6 5 6
1 2 1 3 2 2 3 4 0 2 5 3 3 4 7 6 4 5 5 6 3 1 3 6 1 3 5 2 6 8 11 18 8 7 16 10 9 4 2 5 6 7 7 7 6
Wind_Direction
31 42 30 49 58 81 89 95 126 111 136 134 132 126 124 104 79 62 51 65 92 105 63 87 83 70 95 121 315 276 269 278 265 146 73 117 344 13 98 261 270 267 265 283 295
39 56 44 76 77 74 88 117 132 158 136 134 130 120 123 117 78 66 52 95 109 84 8 33 75 159 151 102 252 264 290 18 20 38 357 5 318 295 307 294 291 284 257 272 336
57 49 59 73 75 59 87 132 141 148 132 134 132 132 125 110 77 39 28 127 107 68 52 22 25 302 80 271 96 353 271 29 2 11 354 309 298 277 264 268 268 272 324 324 322
52 52 57 55 55 49 94 128 130 133 125 127 128 126 143 84 84 46 16 129 82 39 35 14 268 232 239 204 102 279 242 326 322 9 299 282 301 292 280 269 273 288 283 281 288
50 42 35 36 48 65 112 119 116 112 116 124 121 115 69 80 73 29 73 146 70 4 11 356 291 331 261 329 240 234 282 269 255 253 254 259 260 257 269 275 282 278 279 281 270
57 47 38 41 78 93 105 112 116 123 113 117 117 77 104 79 337 102 126 149 52 345 20 339 16 348 292 259 231 343 302 287 275 267 258 262 269 265 241 244 226 265 263 257 268
58 74 64 68 81 91 101 106 108 112 117 108 91 90 67 87 82 115 94 73 78 6 264 11 328 307 336 298 358 275 276 271 255 245 4 29 277 244 236 265 237 270 294 302 317
52 57 67 86 83 85 89 101 110 107 105 96 72 61 76 342 126 123 98 103 116 257 335 327 319 289 268 300 266 250 244 299 50 43 164 147 286 270 214 229 253 265 290 282 296
47 54 68 74 89 93 96 93 89 87 79 41 355 127 97 191 119 46 13 349 284 242 251 253 267 257 269 250 285 221 271 228 276 228 252 223 291 330 262 274 271 232 290 322 347
51 50 55 70 71 58 60 93 87 24 326 37 22 96 167 65 10 299 262 273 291 284 244 219 209 266 245 197 266 317 264 297 268 200 258 258 267 282 274 266 270 269 335 349 343
68 66 42 18 21 27 12 330 258 42 42 47 47 89 96 153 237 219 291 271 240 247 265 209 321 276 318 334 321 306 284 272 272 281 244 255 277 278 294 275 281 348 8 341 312
51 40 51 59 54 48 52 56 48 325 48 45 90 81 60 312 242 119 299 297 338 300 312 281 268 294 355 306 280 284 284 289 276 290 263 255 266 268 264 179 47 32 8 318 321
41 47 46 37 72 50 64 61 22 348 269 65 38 28 344 314 6 20 333 331 286 299 286 292 281 354 308 291 310 291 277 275 299 311 295 273 279 252 249 147 71 31 3 321 317
20 20 346 332 6 27 60 12 11 19 8 3 352 59 283 315 267 25 355 318 291 312 335 282 333 319 301 306 323 310 13 303 298 290 259 321 289 184 178 151 42 19 342 325 328
11 12 26 31 345 9 336 335 332 276 67 337 351 335 237 308 323 128 41 281 282 307 351 276 340 326 309 325 340 287 317 286 275 277 278 280 240 213 126 31 337 6 332 325 321
341 347 352 357 332 280 325 329 299 90 340 351 287 318 330 190 212 303 240 193 237 292 238 258 289 281 267 319 259 292 280 253 257 259 271 220 184 216 134 215 337 330 321 322 323
325 315 324 335 298 296 316 263 5 79 152 277 317 327 319 292 301 292 301 267 7 336 261 289 237 211 124 289 159 248 319 214 221 194 236 154 173 244 144 133 116 289 308 299 310
323 287 290 321 313 306 276 286 68 204 195 228 244 285 235 28 168 288 288 256 167 328 288 307 302 207 126 11 316 304 339 330 320 335 302 160 231 243 137 155 144 154 249 300 293
333 331 261 267 323 37 262 72 256 32 24 308 290 253 163 157 209 306 174 21 15 356 313 349 267 149 183 45 275 69 251 37 290 217 311 221 184 123 150 187 103 352 353 338 331
334 291 213 321 351 309 34 266 3 8 340 252 294 196 311 10 355 309 197 96 34 298 323 342 297 285 112 217 213 239 330 240 218 297 294 266 245 192 187 166 74 345 344 344 339
327 294 200 312 141 237 148 304 273 157 112 287 324 297 284 321 302 242 274 126 144 10 289 312 221 281 102 206 114 187 223 213 167 258 232 297 268 57 123 138 211 300 337 350 350
314 275 187 155 316 238 270 347 2 208 168 268 274 275 279 324 289 273 223 134 118 65 268 67 310 276 263 86 33 307 267 117 116 301 253 156 274 155 132 161 189 279 317 342 1
297 286 205 168 261 206 160 238 252 204 228 217 249 206 3 273 297 238 310 129 142 205 344 45 243 307 211 6 203 244 210 204 119 267 237 167 265 172 162 194 224 231 280 291 2
307 318 216 225 249 297 310 243 218 158 270 248 288 140 257 252 208 284 281 131 135 197 108 72 252 211 213 199 163 231 224 189 164 183 266 243 277 250 220 220 217 213 243 274 281
214 3 84 297 128 315 49 309 235 217 217 196 242 240 279 292 276 222 241 253 168 150 180 207 242 265 268 271 269 250 219 231 204 219 195 258 297 284 294 303 245 190 193 270 270
333 351 210 274 308 261 195 245 237 193 198 211 235 309 214 248 325 311 358 274 312 162 230 149 280 14 281 260 241 260 244 217 237 228 249 263 277 276 264 277 252 193 224 238 258
33 232 237 261 229 244 223 229 168 34 222 277 315 323 275 274 335 314 298 281 199 244 240 170 161 3 273 310 313 299 231 208 195 213 221 236 230 249 209 226 227 234 219 219 245